Location: Newark
(35.8833°N, 14.5000°E)
Time: 08:10:13
(UTC+00:00)

Explorer 11/Cluster Stage 4 - Visible Passes

Search period start: 18 November 2019 00:00
Search period end: 28 November 2019 00:00
Orbit: 467 x 1259 km, 28.8° (Epoch: 17 November)

Date Brightness Start Highest point End Pass type
(mag) Time Alt. Az. Time Alt. Az. Time Alt. Az.
18 Nov 8.3 18:17:21 10° SSW 18:20:13 22° S 18:20:13 22° S visible
19 Nov 8.0 18:06:38 10° SW 18:10:11 26° S 18:10:11 26° S visible
20 Nov 7.8 17:55:58 10° SW 18:00:08 28° SSE 18:00:08 28° SSE visible
21 Nov 7.6 17:45:20 10° SW 17:49:32 29° SSE 17:50:03 29° SSE visible
22 Nov 7.5 17:34:44 10° SW 17:38:50 30° SSE 17:39:58 27° SE visible
22 Nov 9.4 19:21:56 10° WSW 19:22:06 11° WSW 19:22:06 11° WSW visible
23 Nov 7.4 17:24:10 10° SW 17:28:08 31° SSE 17:29:52 25° SE visible
23 Nov 9.2 19:11:27 10° WSW 19:12:00 13° WSW 19:12:00 13° WSW visible
24 Nov 7.4 17:13:38 10° SW 17:17:28 31° SSE 17:19:47 21° SE visible
24 Nov 8.9 19:00:59 10° WSW 19:01:56 16° WSW 19:01:56 16° WSW visible
25 Nov 7.3 17:03:06 10° SW 17:06:49 32° S 17:09:43 17° ESE visible
25 Nov 8.7 18:50:32 10° WSW 18:51:51 18° WSW 18:51:51 18° WSW visible
26 Nov 7.2 16:52:36 10° WSW 16:56:12 31° S 16:59:41 14° ESE visible
26 Nov 8.4 18:40:08 10° WSW 18:41:49 20° SW 18:41:49 20° SW visible
27 Nov 7.2 16:42:07 10° WSW 16:45:35 31° S 16:49:38 10° ESE visible
27 Nov 8.2 18:29:44 10° WSW 18:31:49 22° SW 18:31:49 22° SW visible
